Regional Weather Roundup
Issued by NWS Portland, ME

Home | Current Version | Previous Version | Text Only | Print | Product List | Glossary On
Versions: 1 2 3 4 5 6 7 8 9 10 11 12 13 14 15 16 17 18 19 20 21 22 23 24 25 26 27 28 29 30 31 32 33 34 35 36 37 38 39 40 41 42 43 44 45 46 47 48 49 50
000
ASUS41 KGYX 201610
RWRGYX
WEATHER ROUNDUP FOR MAINE AND NEW HAMPSHIRE
NATIONAL WEATHER SERVICE GRAY ME
1100 AM EST FRI JAN 20 2017

MEZ002-005-006-010-012-015-018-020-021-024-026-027-029-201700-
MAINE

CITY           SKY/WX    TMP DP  RH WIND       PRES   REMARKS
PORTLAND       MOSUNNY   39  25  57 NW5       30.03F
SANFORD        CLOUDY    37  27  67 CALM      30.03F
BAR HARBOR     CLOUDY    36  28  73 N6        30.01F
WISCASSET      SUNNY     40  26  57 CALM      30.03F
ROCKLAND       CLOUDY    40  26  57 VRB6      30.00F
FRYEBURG       CLOUDY    33  28  81 CALM      30.01F
LEWISTONAUBURN CLOUDY    36  26  67 N3        30.02F
AUGUSTA        CLOUDY    36  23  59 NW6       30.01F
WATERVILLE     CLOUDY    36  26  67 W6        29.98F
BANGOR         CLOUDY    34  29  82 CALM      30.01F
GREENVILLE       N/A     31  26  82 CALM      29.92F
MILLINOCKET    CLOUDY    32  27  81 E5        29.99F
HOULTON        CLOUDY    30  25  81 NE7       29.97F
PRESQUE ISLE   CLOUDY    31  25  78 E5        29.99F
FRENCHVILLE    CLOUDY   N/A N/A N/A CALM      29.95F
CARIBOU        CLOUDY    31  23  72 N3        29.97F
$$

NHZ002-005-008-009-011-012-014-201700-
NEW HAMPSHIRE

CITY           SKY/WX    TMP DP  RH WIND       PRES   REMARKS
PORTSMOUTH     CLOUDY    37  27  66 CALM      30.02F
ROCHESTER      CLOUDY    36  27  69 E3        30.01F
NASHUA         CLOUDY    37  32  82 CALM      30.03F
MANCHESTER     CLOUDY    34  29  82 CALM      30.01F
CONCORD        CLOUDY    32  30  92 CALM      30.02F
LACONIA        CLOUDY    31  29  92 CALM      30.01F
PLYMOUTH       CLOUDY    32  30  92 CALM      30.00F
BERLIN         CLOUDY    31  24  75 S3        29.95F
WHITEFIELD     CLOUDY    32  24  72 CALM      29.96F
JAFFREY        CLOUDY    34  26  72 S9        29.98F
KEENE          CLOUDY    35  28  75 S5        30.01F
LEBANON        CLOUDY    35  28  75 S6        29.99F
MT WASHINGTON  PTSUNNY   32  -2  23 W16         N/A
$$

VTZ005-007-008-201700-
VERMONT

CITY           SKY/WX    TMP DP  RH WIND       PRES   REMARKS
ST JOHNSBURY     N/A     34  27  75 MISG      29.96F
MONTPELIER     CLOUDY    31  27  85 S8        29.99F
BURLINGTON     CLOUDY    37  28  70 S8        29.96F
$$

MAZ007-012-024-CTZ003-RIZ002-NYZ038-NYZ072-201700-
SOUTHERN NEW ENGLAND AND NY

CITY           SKY/WX    TMP DP  RH WIND       PRES   REMARKS
BOSTON         CLOUDY    39  32  76 NE3       30.04S
WORCESTER      CLOUDY    34  26  72 S5        29.99S
NANTUCKET      CLOUDY    42  33  70 CALM      30.02F
PROVIDENCE     CLOUDY    40  30  67 N3        30.03F
HARTFORD       CLOUDY    39  31  72 CALM      30.02F
ALBANY         CLOUDY    38  30  73 S8        30.00F
NEW YORK CITY  CLOUDY    43  32  65 NE6       30.03R
$$

ANZ081-ANZ082-ANZ150-NHZ014-MEZ023>029-201700-
COASTAL MARINE OBSERVATIONS

STATION/POSITION TIME  TEMP    WIND        PRES    WAVE
                       AIR SEA DIR/SP/G            HT/PER
                 (UTC) (F)     (DEG/KT/KT) (MB)    (FT/S)
MOUNT DESERT ROC 1600   36                 1016.0F
MATINICUS ROCK   1500   38      20/ 13/ 14 1015.8S
ISLE OF SHOALS   1500   38      50/  7/  9 1017.1R
CASHES LEDGE BUO 1550   41 46   20/ 10/ 12 1016.4S   6/11
GEORGES BANK BUO 1550   41 44              1014.4F   6/11
$$

.............KEY..............
   WCI - WIND CHILL
   TC  - TEMPERATURE IN CELSIUS
   VSB - VISIBILITY IN MILES
   HX  - HEAT INDEX
   FAIR- INDICATES FEW OR NO CLOUDS BELOW 12,000 FT, WITH NO
         SIGNIFICANT WEATHER AND/OR OBSTRUCTIONS TO VISIBILITY.






USA.gov is the U.S. government's official web portal to all federal, state and local government web resources and services.